Temp
5 5 4 4 4 5 3 -0 -1 0 3 1 2 1 2 3 2 1 -0 -1 -1 0 3 3 4 4 4 4 3 3 2 2 2 1 0 -0 -1 -0 -0 -0 0 1 1 2
7 6 5 4 4 3 2 -0 -1 2 3 2 1 1 1 2 3 2 2 1 -0 1 1 2 3 3 3 3 3 3 2 2 1 1 0 -0 -1 -1 -1 -1 -0 0 0 1
6 6 4 5 4 3 4 1 -1 -0 2 1 -1 3 4 3 2 2 2 1 0 0 0 0 2 3 3 3 3 3 2 1 1 1 -0 -1 -1 -2 -2 -2 -1 -1 -0 -0
5 5 5 5 5 3 2 3 2 1 -2 0 -1 3 2 2 1 2 1 -0 -1 -0 0 -0 1 2 3 3 3 2 2 1 1 0 -1 -1 -2 -3 -2 -2 -2 -2 -1 -1
7 4 4 6 5 3 5 2 1 0 -6 -6 -1 -4 1 1 3 3 2 -0 -1 -2 -1 -1 1 2 2 2 2 1 1 0 0 -0 -1 -2 -3 -3 -3 -3 -3 -2 -2 -1
4 4 3 3 3 3 2 1 1 -2 -4 -1 -5 -2 3 4 3 3 3 1 0 -0 -1 -1 1 2 1 1 1 0 -0 -1 -1 -1 -1 -2 -2 -3 -3 -3 -3 -3 -3 -2
4 4 3 2 3 3 -1 -2 3 5 3 5 -5 -3 3 3 1 2 2 1 -0 -1 -1 -2 -1 0 1 0 -0 -0 -1 -1 -1 -1 -2 -2 -3 -3 -3 -3 -4 -4 -3 -3
2 9 3 2 -1 -2 -2 -5 2 7 5 3 -1 -1 6 1 1 -1 -0 -1 -0 -1 -1 -2 -1 -0 -0 -0 -1 -1 -1 -2 -2 -2 -2 -2 -3 -3 -3 -4 -4 -4 -4 -3
0 7 2 2 0 -2 1 -1 -3 -6 -9 -6 -0 -1 1 2 0 -1 -1 0 -1 -1 -2 -1 -1 -1 -1 -1 -1 -2 -2 -3 -3 -3 -3 -3 -3 -3 -3 -4 -4 -4 -4 -4
-2 0 2 1 0 -1 -2 -3 -0 -6 2 4 2 -3 4 4 4 3 1 -1 -1 -2 -2 -1 -1 -1 -2 -2 -2 -3 -3 -3 -3 -4 -4 -4 -4 -3 -4 -4 -4 -4 -4 -4
-8 -4 3 0 -1 -2 -4 -6 -7 -5 -6 -2 -2 4 -1 0 -0 -2 -3 -3 -5 -4 -3 -3 -3 -2 -3 -3 -3 -3 -4 -4 -4 -5 -5 -5 -5 -5 -4 -4 -4 -4 -4 -4
-5 -7 -2 3 -6 -9 -7 -5 -6 -0 -3 -11 -10 -2 -1 -2 -4 -11 -7 -7 -6 -6 -5 -4 -3 -3 -4 -4 -4 -4 -5 -5 -5 -5 -5 -5 -5 -5 -5 -5 -5 -5 -4 -4
-5 -4 1 5 -2 -5 -5 -11 -11 -9 -8 -8 -6 2 -2 -11 -8 -7 -8 -7 -8 -6 -5 -5 -4 -5 -5 -5 -5 -5 -6 -6 -6 -6 -6 -6 -6 -6 -5 -5 -5 -5 -5 -5
0 -5 2 9 7 -4 -5 -6 -10 -5 -6 -7 -3 2 7 6 0 1 -0 -5 -6 -9 -5 -6 -6 -5 -5 -5 -6 -6 -6 -6 -6 -7 -7 -7 -6 -6 -6 -5 -5 -5 -5 -5
-3 -3 -2 -0 0 -2 0 -2 -8 -5 -2 0 8 -4 2 2 3 2 -3 -7 -6 -5 -6 -6 -6 -6 -6 -6 -6 -7 -7 -7 -7 -7 -7 -6 -6 -6 -6 -6 -6 -5 -5 -5
-4 -2 -5 -5 0 -4 -2 -1 -2 -4 -1 -4 -2 -1 2 1 -0 -7 -5 -7 -5 -6 -7 -6 -7 -7 -7 -7 -7 -7 -7 -7 -7 -7 -7 -7 -6 -6 -6 -6 -6 -6 -5 -5
-4 -4 -3 -0 -1 -0 2 -2 -2 -5 -6 -1 -3 3 -13 -8 -2 -4 -7 -6 -7 -8 -7 -7 -8 -8 -8 -8 -8 -8 -8 -7 -7 -7 -7 -6 -6 -6 -6 -6 -5 -6 -5 -5
-4 -4 -3 -2 -0 7 9 -8 -5 -3 -3 -4 -3 0 2 -1 -5 -9 -7 -8 -9 -8 -8 -8 -8 -8 -8 -8 -8 -8 -8 -7 -7 -6 -5 -5 -5 -6 -6 -6 -5 -6 -5 -5
-2 -1 -3 -1 -2 6 7 -3 -4 -2 3 1 -2 -1 -2 -7 -10 -6 -9 -13 -9 -9 -9 -9 -9 -9 -9 -9 -8 -8 -8 -7 -6 -4 -4 -4 -3 -4 -5 -5 -5 -5 -5 -5
-2 -2 -3 -1 3 7 7 -0 -4 -5 2 -1 -4 -3 -4 -9 -3 -4 -11 -11 -9 -9 -9 -9 -9 -9 -10 -9 -9 -8 -7 -7 -5 -5 -3 -3 -4 -5 -5 -5 -5 -5 -5 -5
-5 -5 -2 -1 1 2 4 -1 -3 4 11 -4 -5 -3 -11 -5 -4 -7 -9 -9 -8 -9 -9 -9 -10 -10 -9 -9 -9 -8 -7 -6 -6 -5 -3 -4 -5 -5 -5 -5 -5 -5 -5 -4
-1 -2 -3 -2 -0 4 -0 -2 5 10 -0 -1 -5 -4 -7 -7 -7 -8 -9 -10 -9 -10 -10 -10 -11 -10 -10 -9 -9 -8 -7 -6 -6 -5 -3 -3 -4 -4 -5 -5 -5 -4 -4 -3
3 5 5 4 3 7 -1 8 7 1 1 -1 -4 -5 -7 -6 -8 -8 -9 -10 -10 -10 -10 -10 -11 -11 -10 -9 -9 -8 -8 -6 -6 -5 -2 -3 -4 -4 -4 -4 -4 -4 -3 -3
-1 -3 2 2 11 5 7 6 4 3 0 -1 -4 -5 -8 -7 -7 -8 -9 -10 -11 -10 -11 -11 -11 -11 -10 -10 -9 -8 -8 -7 -6 -4 -3 -2 -3 -3 -4 -3 -3 -3 -3 -2
1 -0 2 3 6 7 8 7 3 2 -2 -4 -5 -6 -6 -7 -7 -9 -10 -11 -11 -11 -12 -11 -12 -11 -11 -10 -9 -8 -7 -7 -6 -5 -4 -2 -2 -2 -3 -3 -3 -2 -2 -1
-2 6 5 8 11 8 9 2 -0 -3 -3 -4 -6 -6 -7 -8 -8 -9 -10 -11 -12 -12 -10 -12 -12 -11 -11 -10 -9 -8 -7 -7 -7 -6 -5 -3 -1 -1 -2 -2 -2 -1 -1 -0
Height
865 874 894 896 894 890 898 915 913 894 878 880 867 864 850 842 842 840 837 836 834 831 830 833 833 832 831 830 827 824 820 815 812 808 804 800 797 794 792 791 789 788 786 784
870 886 892 893 893 895 899 912 910 882 876 882 872 853 846 841 837 833 832 833 832 830 830 828 829 830 828 825 821 818 815 811 809 806 802 800 796 792 788 786 785 785 784 782
882 887 891 887 892 893 890 900 908 906 883 880 885 847 836 834 835 832 829 828 829 828 827 828 826 824 822 818 815 811 809 807 804 801 798 796 792 788 785 782 780 780 780 778
890 889 888 885 888 899 899 887 892 893 908 901 896 877 850 841 838 832 830 828 827 826 824 821 820 818 815 812 809 806 804 801 798 794 792 790 787 783 779 778 776 775 775 773
882 892 890 883 884 895 881 891 895 897 932 934 904 929 851 847 833 825 824 824 822 821 822 819 815 812 810 808 804 801 797 793 790 788 786 784 780 777 774 773 771 770 769 769
894 894 894 892 891 891 890 894 892 907 921 915 932 916 847 833 827 820 817 818 817 815 813 812 811 809 805 801 797 792 788 785 783 781 778 775 773 770 770 766 765 763 763 763
894 893 897 898 893 887 901 907 896 876 891 867 923 919 836 819 823 819 816 814 813 811 809 808 806 803 799 795 790 785 782 778 776 772 769 766 764 762 759 759 758 757 756 757
923 870 899 903 916 922 920 935 918 887 888 890 904 898 809 817 814 815 813 813 809 808 806 803 800 795 790 786 782 777 773 768 765 762 758 756 754 752 750 750 750 749 749 750
936 888 904 904 911 920 910 925 932 965 984 969 888 865 825 809 811 812 811 808 806 803 801 797 795 790 784 779 774 769 764 759 754 751 748 745 743 741 740 740 741 741 741 743
940 933 903 909 911 918 924 932 924 956 910 887 871 895 832 805 796 799 803 805 801 798 795 792 789 782 777 771 765 760 753 748 744 741 739 735 733 731 730 730 730 731 733 735
954 948 901 912 915 919 931 947 950 947 959 938 929 839 821 812 806 811 807 805 801 796 790 785 779 774 769 762 756 750 743 738 734 732 728 725 723 722 721 720 721 722 724 726
942 957 938 892 925 934 931 928 934 917 937 991 988 880 806 808 808 825 812 804 796 791 784 778 771 765 759 754 747 740 735 730 726 721 717 714 713 712 711 709 709 712 714 717
934 939 918 873 914 922 925 946 948 944 946 955 948 841 803 827 818 809 808 799 794 785 776 770 765 758 752 745 738 731 726 721 716 711 707 704 702 701 700 700 700 701 704 707
919 939 903 863 855 910 922 923 940 917 938 933 886 813 766 774 793 782 783 789 787 781 770 764 758 751 744 738 729 722 715 712 706 700 696 692 690 689 690 689 690 691 694 698
925 931 919 898 887 896 877 889 920 906 887 875 785 860 795 791 780 778 783 785 779 771 766 761 754 746 738 730 721 714 706 700 695 689 684 680 678 677 678 678 679 682 684 688
928 918 925 918 879 899 884 868 873 885 872 880 850 826 794 789 787 798 785 782 772 769 762 754 748 740 732 723 715 706 696 689 683 677 671 667 665 664 666 668 669 672 675 680
929 932 925 891 884 876 853 850 855 870 867 838 851 785 824 808 788 785 783 780 772 768 759 750 742 734 726 718 709 699 687 678 670 663 658 653 651 650 651 655 659 662 666 670
924 928 926 909 880 835 783 848 840 836 828 827 810 787 778 781 788 788 778 776 770 764 756 746 737 727 720 711 702 692 681 670 659 649 642 638 636 636 639 643 646 652 657 661
912 914 924 911 912 820 786 832 841 832 786 784 798 786 786 792 796 776 769 771 763 758 752 744 735 725 714 705 696 684 672 663 651 639 629 625 622 622 627 633 639 645 651 655
911 914 921 912 884 834 788 817 828 832 799 778 790 786 789 799 785 767 768 763 756 750 745 737 728 720 711 700 691 679 666 656 645 635 627 620 616 617 621 628 633 640 646 650
924 928 915 904 885 846 792 809 823 803 739 774 780 778 799 788 774 763 760 755 751 744 738 732 724 715 705 695 685 674 662 651 641 631 624 620 618 618 620 625 629 635 641 646
885 902 908 895 883 834 791 811 786 740 757 761 769 770 776 772 767 765 760 754 746 739 732 727 719 707 698 691 682 671 659 647 638 628 622 619 618 618 620 624 627 630 634 641
856 831 827 828 809 756 777 743 744 755 757 760 765 764 767 766 765 762 759 754 746 739 732 724 717 706 695 687 679 668 654 644 634 625 618 618 618 619 620 622 625 627 631 635
843 840 829 816 737 755 753 745 747 748 750 751 756 760 765 764 760 759 757 751 745 737 730 722 715 705 694 684 675 667 654 643 633 624 617 615 616 617 619 621 623 625 627 630
827 834 813 787 764 743 736 736 741 741 744 749 753 754 753 757 755 754 753 750 744 738 730 722 714 705 694 682 672 662 652 642 634 625 618 613 613 614 616 618 620 622 625 626
823 792 792 757 736 747 729 742 744 746 743 743 748 752 749 750 751 753 750 747 744 737 730 722 713 705 693 682 671 661 652 642 634 627 620 614 609 609 612 613 615 617 619 622
Wind_Speed
6 9 4 3 1 3 4 3 6 6 3 10 3 13 17 12 5 8 8 7 8 9 7 8 8 9 13 20 26 27 28 33 31 31 30 29 26 31 32 30 27 24 24 22
6 3 3 3 4 3 4 3 6 13 2 6 8 21 8 5 6 5 6 7 7 4 6 11 11 11 17 25 29 28 29 32 31 29 29 28 31 31 30 30 28 23 22 22
5 1 4 1 3 9 3 3 2 6 10 1 10 7 3 3 4 6 5 5 5 8 8 6 10 15 22 28 32 31 28 29 31 29 28 29 31 28 25 27 28 27 24 24
4 2 2 2 0 2 3 2 8 8 4 3 7 5 6 4 8 6 8 7 8 8 6 7 14 21 27 33 32 32 31 34 31 30 27 27 27 25 26 28 30 29 27 25
1 5 4 1 2 3 5 6 3 2 3 4 4 4 8 3 7 7 8 9 9 9 8 9 17 22 29 33 32 32 33 34 32 31 31 29 28 28 28 26 28 28 28 27
1 1 1 3 3 3 8 3 2 3 3 3 4 4 7 4 6 4 4 7 9 10 11 12 22 27 28 28 28 31 31 31 30 31 33 33 32 31 28 25 25 26 24 26
5 1 1 3 4 1 9 5 4 6 4 5 5 2 13 7 7 7 9 10 9 9 8 8 10 20 25 26 30 31 28 27 28 30 31 33 33 33 32 29 26 25 23 21
4 6 4 5 4 4 3 4 4 5 4 6 1 7 6 7 6 8 8 9 8 9 7 8 14 21 25 29 30 29 28 28 29 31 33 34 33 32 31 29 27 26 25 23
4 5 2 5 3 3 1 4 2 5 1 3 4 8 12 6 8 7 11 8 12 10 9 10 19 24 27 30 32 31 31 32 32 32 31 32 35 33 31 31 29 28 27 25
2 5 2 3 2 5 4 3 3 3 4 7 5 6 6 8 8 5 7 9 10 8 10 13 19 25 29 32 34 32 32 31 33 33 32 32 31 32 32 31 30 30 28 26
4 2 2 3 5 7 2 2 4 4 3 4 4 8 8 10 7 9 9 9 11 12 14 15 19 27 30 33 31 32 32 32 31 30 31 32 31 33 34 33 32 31 29 29
3 5 5 7 1 2 2 5 5 4 5 1 2 10 5 10 9 5 11 11 13 12 16 15 21 28 30 30 32 32 34 31 31 32 31 32 31 31 32 32 32 30 30 28
7 2 5 4 3 4 3 3 3 4 3 8 5 8 3 3 7 8 11 11 11 12 15 14 17 22 28 30 32 32 31 30 30 30 30 31 31 30 31 31 31 30 31 31
7 2 6 9 6 4 4 5 5 5 4 4 10 15 29 16 12 16 13 8 11 11 15 14 17 19 28 31 31 30 32 31 32 30 30 30 31 32 31 30 31 30 31 30
4 5 5 12 17 7 20 11 11 14 10 9 25 10 26 21 25 22 17 11 12 17 19 18 19 19 29 30 30 31 32 32 33 30 30 31 30 31 30 30 30 31 31 30
2 4 3 6 14 6 11 10 16 20 18 16 28 34 31 30 19 9 13 11 18 18 19 21 18 19 25 29 32 33 34 35 34 32 31 31 30 29 29 30 30 30 30 30
5 1 5 7 5 13 8 9 15 6 8 8 9 17 2 5 13 9 8 14 16 16 19 21 20 21 30 33 35 35 36 37 36 35 31 30 29 28 29 27 29 29 29 28
5 3 2 6 9 3 5 2 4 11 9 22 17 20 19 13 8 10 12 10 12 17 19 20 19 29 35 36 37 36 38 38 36 35 31 28 27 28 29 28 28 28 27 28
2 3 2 3 2 15 6 2 5 5 12 18 19 20 15 6 7 10 4 5 12 16 15 25 31 33 37 37 36 37 37 34 32 32 26 27 23 26 28 27 27 26 26 26
4 2 2 1 4 6 6 3 4 4 8 6 9 10 8 3 6 4 4 5 14 17 22 28 33 35 34 34 36 35 33 33 27 31 18 20 10 14 20 22 24 24 24 24
2 1 6 6 7 10 16 8 6 3 10 5 8 8 5 5 7 5 9 10 18 20 23 28 30 29 33 36 33 32 32 27 34 32 12 8 6 11 15 18 21 21 22 23
8 8 6 4 5 11 9 8 9 6 2 3 5 6 9 11 11 9 12 12 15 16 24 27 27 31 35 34 31 31 29 35 35 30 10 4 3 7 12 15 18 20 21 22
3 8 5 14 10 6 13 16 7 1 4 4 4 6 9 7 6 7 8 11 14 20 22 27 26 31 34 33 33 29 35 36 34 26 15 5 7 9 12 16 17 18 20 19
5 4 5 3 18 27 22 20 18 14 13 5 4 5 6 6 6 8 8 10 11 21 20 26 27 27 30 34 35 33 32 36 32 26 23 6 10 12 12 16 18 18 18 19
4 5 6 14 23 28 19 17 8 5 5 5 5 6 6 6 7 5 7 10 14 20 22 25 24 26 31 36 35 37 32 34 29 24 23 6 8 11 12 17 18 17 20 20
6 12 8 13 23 13 21 2 1 6 6 9 8 6 5 6 6 4 8 12 15 19 22 23 27 27 34 36 36 36 35 34 28 23 19 20 10 13 13 14 14 20 22 20
Wind_Direction
11 58 29 312 308 136 229 217 256 258 283 339 246 285 288 297 294 293 271 256 244 230 222 211 220 251 299 323 330 328 327 330 327 323 323 325 318 317 315 315 316 310 306 306
29 63 294 248 144 316 193 204 266 293 252 332 311 296 273 267 259 256 268 276 240 212 206 227 253 281 312 321 322 318 319 322 318 316 312 307 309 306 305 307 308 306 302 298
98 201 304 17 36 355 217 204 304 243 321 246 309 297 297 278 279 279 265 251 238 220 224 252 269 290 302 312 318 311 310 310 309 310 306 297 302 299 295 299 304 305 301 297
89 319 357 27 338 218 299 100 325 292 31 292 9 289 304 279 294 274 267 247 241 236 241 245 267 286 301 309 312 310 307 308 301 297 291 284 283 282 286 289 296 298 296 293
316 358 360 320 250 181 254 348 287 84 80 30 353 68 271 330 283 259 252 246 239 238 240 255 262 286 302 307 303 302 300 297 292 290 287 281 270 273 278 280 284 288 291 288
96 260 38 279 289 223 309 15 90 67 98 9 249 96 280 224 216 257 251 256 250 240 242 253 278 299 294 296 298 294 291 288 287 284 283 274 269 268 270 271 271 277 279 283
331 247 6 6 337 49 19 25 342 353 3 242 180 40 247 250 232 230 248 267 269 256 251 265 286 293 295 296 295 294 293 285 279 275 273 268 263 263 260 262 263 266 270 269
33 325 28 358 104 196 13 108 135 275 294 289 73 229 258 212 244 244 257 249 272 269 264 273 274 294 300 298 297 293 288 285 281 275 271 269 263 261 258 258 255 256 258 260
25 281 108 44 115 114 295 51 187 93 96 13 273 286 288 261 271 254 255 251 257 262 269 272 299 300 300 300 299 297 293 285 280 276 272 267 269 261 256 258 254 252 253 255
196 313 60 141 106 64 113 139 33 20 330 301 279 281 249 294 275 268 270 255 267 267 280 295 301 302 304 301 300 294 287 283 283 280 276 271 267 262 260 256 254 248 247 248
130 98 287 57 190 183 79 16 44 116 124 204 298 273 217 235 249 252 267 270 274 277 289 294 298 303 305 303 299 297 292 289 287 285 278 272 266 263 260 255 252 246 244 244
198 151 269 236 356 167 130 193 156 130 247 153 140 267 243 234 253 202 267 269 275 276 281 291 299 308 308 304 303 298 296 294 289 285 278 273 269 262 255 251 250 244 241 238
183 219 308 305 2 358 217 206 128 108 82 201 149 259 265 282 281 266 260 267 270 282 293 295 306 311 307 306 302 299 299 293 289 285 275 271 267 259 255 248 245 240 236 236
155 203 202 230 247 125 243 189 206 144 156 179 228 277 295 297 296 304 304 292 293 282 305 310 308 309 307 307 302 302 301 297 291 285 273 266 261 256 251 247 240 235 231 231
139 241 206 270 274 251 264 232 183 204 204 202 273 219 274 289 299 306 311 304 305 317 312 311 312 309 311 309 306 306 302 298 293 285 275 268 261 252 246 241 236 231 226 227
161 267 13 269 268 230 259 242 214 221 240 254 263 277 272 272 287 286 290 303 314 308 304 311 308 309 312 312 310 308 304 301 297 288 276 270 261 249 242 231 228 223 222 221
160 291 5 275 323 299 278 228 188 186 209 197 200 248 74 288 289 293 291 303 303 302 306 309 312 312 315 313 311 308 306 305 299 290 280 267 256 242 238 228 219 218 217 215
143 135 160 283 321 336 256 175 179 191 233 210 262 270 275 278 276 283 279 280 294 306 308 309 312 314 316 313 311 310 308 307 299 292 284 270 249 234 227 222 217 213 212 210
124 123 285 304 259 285 286 181 156 176 281 232 226 259 269 301 309 281 244 213 283 299 300 303 308 310 313 311 313 313 311 311 308 311 290 281 254 228 209 209 210 206 205 207
114 84 139 148 250 270 255 177 143 134 282 197 195 234 256 34 322 274 239 262 297 301 304 308 311 315 312 314 317 317 315 317 319 318 329 314 254 195 197 202 201 200 201 206
138 186 221 228 257 278 255 177 159 68 294 188 175 224 175 220 217 272 306 302 301 302 309 313 314 314 314 317 320 319 320 320 325 323 315 330 244 204 196 194 194 196 196 203
168 168 205 199 224 275 137 115 181 235 233 171 196 211 228 237 269 282 291 301 307 312 318 318 319 320 321 322 325 321 325 326 327 325 298 309 251 203 188 187 194 198 196 201
267 201 198 196 214 237 192 251 258 132 250 224 215 209 217 246 259 292 290 303 304 310 314 319 320 320 321 326 328 323 324 333 328 325 297 246 212 209 194 189 193 195 197 199
258 179 233 16 254 249 259 262 257 245 242 202 199 189 187 251 274 287 291 297 307 311 315 317 323 322 320 328 328 330 326 339 335 333 327 225 200 210 203 195 199 194 196 203
171 136 243 259 278 284 267 265 279 237 180 168 174 201 209 227 269 260 287 300 304 307 314 325 319 321 319 327 328 333 336 343 339 334 334 234 218 218 207 202 201 202 210 212
192 232 225 263 274 281 294 7 316 183 207 186 174 218 210 207 249 279 290 297 299 302 320 321 319 325 324 326 328 335 343 345 341 335 333 325 237 211 213 200 208 218 210 209